SCP
0 -0 -0 -0 -0 0 -0 0 0 0 -0 -0 -0 -0 -0 -0 -0 -0 -0 -0 -0 -0 -0 0 0 -0 0 0 0 0 0 0 0 0 0 0 0 0 0 0 0 0 0 0 0 0 0
0 0 -0 -0 0 0 0 0 0 0 0 -0 -0 -0 -0 -0 -0 -0 -0 -0 -0 -0 -0 -0 -0 0 0 0 0 0 0 0 0 0 0 0 0 0 0 0 0 0 0 0 0 0 0
0 -0 0 0 0 0 0 0 0 0 0 0 0 0 0 0 -0 -0 -0 -0 -0 -0 -0 -0 -0 0 0 0 0 0 0 0 0 0 0 0 0 0 0 0 0 0 0 0 0 0 0
0 0 0 0 0 0 0 0 0 0 0 0 0 0 0 0 0 -0 0 -0 -0 0 -0 -0 0 0 0 0 0 0 0 0 0 0 0 0 0 0 0 0 0 0 0 0 0 0 0
0 0 0 0 0 0 0 0 0 -0 0 0 0 0 0 0 0 0 0 -0 -0 -0 -0 0 0 0 0 0 0 0 0 0 0 0 0 0 0 0 0 0 0 0 0 0 0 0 0
0 0 0 0 0 0 0 0 0 -0 0 0 0 0 0 0 0 0 -0 -0 -0 -0 0 0 0 0 0 0 0 0 0 0 0 0 0 0 0 0 0 0 0 0 0 0 0 0 0
0 0 0 0 0 0 0 0 0 0 0 0 0 0 0 0 0 0 0 -0 -0 -0 0 0 0 0 0 0 0 0 0 0 0 0 0 0 0 0 0 0 0 0 0 0 0 0 0
0 0 0 0 0 0 0 0 0 0 0 0 0 0 0 0 0 0 -0 -0 -0 0 0 0 0 0 0 0 0 0 0 0 0 0 0 0 0 0 0 0 0 0 0 0 0 0 0
0 0 0 0 0 0 0 0 0 0 0 0 0 0 0 0 -0 -0 -0 -0 -0 -0 0 0 0 0 0 0 0 0 0 0 0 0 0 0 0 0 0 0 0 0 0 0 0 0 0
0 0 0 0 0 0 0 0 0 0 0 0 0 0 0 0 0 -0 0 0 0 0 0 0 0 0 0 0 0 0 0 0 0 0 0 0 0 0 0 0 0 0 0 0 0 0 0
0 0 0 0 0 0 0 0 0 0 0 0 0 0 0 0 0 0 0 0 0 0 0 0 0 0 0 0 0 0 0 0 0 0 0 0 0 0 0 0 0 0 0 0 0 0 0
0 0 0 0 0 0 0 0 0 0 0 0 0 0 0 0 0 0 0 0 0 0 0 0 0 0 0 0 0 0 0 0 0 0 0 0 0 0 0 0 0 0 0 0 0 0 0
0 0 0 0 0 0 0 0 0 0 0 0 0 0 0 0 0 0 0 0 0 0 0 0 0 0 0 0 0 0 0 0 0 0 0 0 0 0 0 0 0 0 0 0 0 0 0
0 0 0 0 0 0 0 0 0 0 0 0 0 0 0 0 0 0 0 0 0 0 0 0 0 0 0 0 0 0 0 0 0 0 0 0 0 0 0 0 0 0 0 0 0 0 0
0 0 0 0 0 0 0 0 0 0 0 0 0 0 0 0 0 0 0 0 0 0 0 0 0 0 0 0 0 0 0 0 0 0 0 0 0 0 0 0 0 0 0 0 0 0 0
0 0 0 0 0 0 0 0 0 0 0 0 0 0 0 0 0 0 0 0 0 0 0 0 0 0 0 0 0 0 0 0 0 0 0 0 0 0 0 0 0 0 0 0 0 0 0
0 0 0 0 0 0 0 0 0 0 0 0 0 0 0 0 0 0 0 0 0 0 0 0 0 0 0 0 0 0 0 0 0 0 0 0 0 0 0 0 0 0 0 0 0 0 0
0 0 0 0 0 0 0 0 0 0 0 0 0 0 0 0 0 0 0 0 0 0 0 0 0 0 0 0 0 0 0 0 0 0 0 0 0 0 0 0 0 0 0 0 0 0 0
0 0 0 0 0 0 0 0 0 0 0 0 0 0 0 0 0 0 0 0 0 0 0 0 0 0 0 0 0 0 0 0 0 0 0 0 0 0 0 0 0 0 0 0 0 0 0
0 0 0 0 0 0 0 0 0 0 0 0 0 0 0 0 0 0 0 0 0 0 0 0 0 0 0 0 0 0 0 0 0 0 0 0 0 0 0 0 0 0 0 0 0 0 0
0 0 0 0 0 0 0 0 0 0 0 0 0 0 0 0 0 0 0 0 0 0 0 0 0 0 0 0 0 0 0 0 0 0 0 0 0 0 0 0 0 0 0 0 0 0 0
0 0 0 0 0 0 0 0 0 0 0 0 0 0 0 0 0 0 0 0 0 0 0 0 0 0 0 0 0 0 0 0 0 0 0 0 0 0 0 0 0 0 0 0 0 0 0
0 0 0 0 0 0 0 0 0 0 0 0 0 0 0 0 0 0 0 0 0 0 0 0 0 0 0 0 0 0 0 0 0 0 0 0 0 0 0 0 0 0 0 0 0 0 0
0 0 0 0 0 0 0 0 0 0 0 0 0 0 0 0 0 0 0 0 0 0 0 0 0 0 0 0 0 0 0 0 0 0 0 0 0 0 0 0 0 0 0 0 0 0 0
0 0 0 0 0 0 0 0 0 0 0 0 0 0 0 0 0 0 0 0 0 0 0 0 0 0 0 0 0 0 0 0 0 0 0 0 0 0 0 0 0 0 0 0 0 0 0
0 0 0 0 0 0 0 0 0 0 0 0 0 0 0 0 0 0 0 0 0 0 0 0 0 0 0 0 0 0 0 0 0 0 0 0 0 0 0 0 0 0 0 0 0 0 0
0 0 0 0 0 0 0 0 0 0 0 0 0 0 0 0 0 0 0 0 0 0 0 0 0 0 0 0 0 0 0 0 0 0 0 0 0 0 0 0 0 0 0 0 0 0 0
0 0 0 0 0 0 0 0 0 0 0 0 0 0 0 0 0 0 0 0 0 0 0 0 0 0 0 0 0 0 0 0 0 0 0 0 0 0 0 0 0 0 0 0 0 0 0
0 0 0 0 0 0 0 0 0 0 0 0 0 0 0 0 0 0 0 0 0 0 0 0 0 0 0 0 0 0 0 0 0 0 0 0 0 0 0 0 0 0 0 0 0 0 0
Wind_Speed_500mb
8 11 12 14 17 17 19 21 23 25 28 30 33 34 33 34 35 34 27 21 21 18 19 14 7 8 11 10 9 20 27 24 19 23 24 17 21 8 7 5 6 5 14 16 19 20 25
3 6 10 14 16 18 19 21 24 27 30 31 33 33 32 34 35 36 30 22 21 17 18 12 10 15 13 7 12 21 28 23 16 18 20 19 9 9 8 6 7 12 19 32 14 10 16
4 3 6 9 11 14 16 18 22 24 28 32 34 35 34 38 39 40 36 21 22 18 15 5 4 9 14 6 13 19 29 21 18 16 12 9 15 9 7 2 9 12 10 21 16 9 6
7 5 1 4 7 10 13 16 19 22 26 30 33 35 36 36 42 43 44 24 22 20 15 9 4 8 3 10 9 23 24 12 17 13 6 9 15 11 9 6 6 7 1 11 3 13 10
10 9 5 4 5 6 8 13 16 20 21 25 30 32 34 37 37 44 47 33 25 16 14 9 6 7 4 9 13 21 26 15 10 12 9 8 13 5 2 9 3 9 6 13 13 14 8
16 13 10 7 7 8 10 13 16 18 22 24 26 29 31 35 39 37 43 34 26 8 24 3 10 2 8 10 17 17 27 10 5 9 7 6 3 1 8 9 2 9 9 9 20 14 28
23 21 19 17 16 15 13 14 15 17 20 24 25 28 30 33 38 38 43 28 25 7 23 6 2 1 9 22 7 13 22 12 10 2 6 7 2 4 9 8 7 11 16 20 26 23 16
28 27 26 25 24 23 20 22 21 20 21 23 26 27 34 32 38 35 37 24 20 17 13 9 3 4 10 16 7 9 15 2 8 4 8 4 2 11 4 7 11 14 18 15 21 22 26
36 33 34 32 34 29 27 26 23 22 24 27 28 30 30 32 35 34 38 33 28 18 9 3 6 2 5 10 6 10 14 3 8 5 5 1 7 3 1 6 10 13 10 10 22 30 16
24 23 26 33 30 30 34 25 29 27 30 31 31 30 32 27 17 35 29 36 31 19 8 5 3 1 5 7 4 11 10 3 6 3 7 6 9 2 8 5 8 7 16 23 25 9 7
31 26 33 38 35 26 31 33 33 34 33 32 37 35 30 27 23 23 24 28 31 10 8 3 2 4 8 5 10 3 9 3 6 2 4 2 5 4 3 3 5 16 23 31 14 3 9
24 29 35 35 35 34 33 30 34 41 41 35 32 27 26 29 23 19 20 26 22 8 11 1 3 3 6 5 2 8 3 4 4 2 10 7 1 3 7 13 7 17 13 20 5 5 5
30 32 32 35 39 37 37 38 41 41 37 31 29 33 27 21 18 18 16 15 7 6 4 6 3 1 4 5 2 7 5 2 5 7 3 4 2 4 4 8 8 15 12 8 9 3 9
32 31 32 33 32 32 34 37 35 31 28 25 25 20 18 17 17 14 10 7 7 3 6 1 4 8 5 8 4 7 5 4 6 2 4 4 11 6 2 4 1 6 4 5 8 8 14
37 37 37 35 33 32 30 29 27 20 25 27 21 23 21 18 19 12 6 4 7 5 2 7 3 3 2 3 2 5 4 5 7 4 6 2 8 6 1 4 7 3 1 4 3 5 3
41 41 41 40 35 33 26 24 22 22 21 17 19 25 21 19 15 12 4 8 7 4 2 2 3 3 5 0 4 4 5 2 8 4 4 5 8 1 3 4 9 4 2 5 1 9 11
37 38 37 35 36 30 23 15 21 23 21 19 20 7 10 14 16 10 6 7 4 3 2 3 2 4 8 3 2 3 3 5 7 9 6 5 7 7 5 8 12 3 3 4 2 3 6
30 32 32 30 28 27 26 20 18 22 22 18 14 4 8 17 6 3 4 4 1 5 4 4 2 5 6 3 5 6 5 2 9 15 5 6 0 8 14 11 9 2 6 7 7 10 8
31 33 31 31 31 30 26 20 22 23 23 23 8 7 16 25 5 5 3 3 5 7 7 6 4 5 7 4 7 11 5 6 15 10 4 9 4 7 7 8 3 6 9 8 0 3 13
30 33 33 30 29 26 30 28 28 30 25 30 9 3 5 21 9 2 7 6 4 7 7 9 6 3 5 7 9 7 5 7 14 8 4 2 6 12 11 10 4 9 10 13 14 6 8
39 36 36 34 30 31 28 27 30 32 37 36 23 9 10 7 11 13 8 8 8 7 9 16 6 15 14 8 6 9 10 7 12 13 9 6 9 6 18 21 21 28 31 21 24 32 10
40 40 43 41 37 33 32 29 38 40 48 47 12 10 12 7 5 19 16 11 19 10 16 11 11 15 20 11 12 7 7 9 10 16 12 8 6 2 11 15 12 23 34 29 34 26 28
46 45 45 46 47 43 41 27 46 42 32 39 42 28 12 14 8 10 12 13 19 19 23 6 21 11 16 26 29 22 11 5 3 15 16 10 5 1 11 6 14 15 16 16 11 16 13
53 50 52 50 46 45 43 43 51 53 40 25 22 32 17 7 15 13 9 21 19 27 7 5 16 9 5 4 3 2 5 5 12 17 13 9 6 3 8 10 4 15 9 11 17 13 30
63 61 60 59 62 56 52 49 45 66 65 47 33 32 22 11 17 18 20 13 17 11 17 12 16 13 14 8 1 6 5 7 6 9 3 10 4 2 3 4 18 19 6 11 12 16 19
65 65 67 67 65 63 58 60 54 49 54 63 49 42 42 7 23 29 19 25 9 8 5 9 13 18 16 6 5 6 8 9 4 4 4 3 5 5 4 5 13 7 7 4 4 11 9
76 71 73 70 64 60 68 61 65 55 51 51 56 37 52 36 23 39 10 19 21 16 4 11 13 13 21 7 6 7 8 2 6 14 11 7 5 18 13 9 18 20 16 11 10 12 7
76 80 75 74 71 71 69 68 67 71 60 57 58 62 41 37 51 39 48 33 22 24 10 21 11 9 6 9 7 8 7 9 1 9 13 17 17 11 9 8 21 28 11 14 8 5 9
80 80 83 79 80 68 70 70 58 68 73 65 64 58 50 45 22 46 59 58 45 36 32 42 9 16 24 6 6 4 4 3 7 7 1 5 15 12 23 19 7 43 21 35 12 11 14
Wind_Direction_500mb
40 48 49 54 49 44 38 42 44 42 39 35 33 33 31 25 20 15 15 16 14 14 14 21 65 36 62 59 36 358 3 6 21 34 26 29 44 14 93 339 334 289 5 316 298 284 295
23 44 53 50 42 40 39 41 43 42 38 34 31 30 30 26 22 16 11 9 10 12 15 41 73 52 46 75 6 354 3 6 22 44 18 49 38 62 69 47 311 330 299 284 267 264 286
304 28 55 52 47 42 42 41 43 40 39 36 32 27 24 21 19 14 6 359 3 6 10 18 66 46 36 99 18 -0 360 6 16 32 28 61 71 49 1 8 338 297 298 286 204 186 279
290 287 327 35 40 39 35 33 35 33 31 31 29 25 20 13 13 11 5 1 356 1 5 4 18 90 86 11 337 358 4 5 2 26 29 70 65 60 53 316 221 278 159 355 143 192 166
274 279 263 303 338 2 14 13 13 18 18 20 17 15 14 11 6 8 7 2 355 8 17 21 76 89 55 344 351 347 360 1 1 346 43 66 64 60 247 321 254 60 268 297 316 223 243
255 267 276 273 293 318 340 350 351 354 359 359 3 10 7 5 3 359 3 359 357 358 10 43 60 89 3 321 318 340 350 10 349 352 359 13 21 324 40 14 13 306 309 315 303 305 300
254 258 264 271 278 279 297 298 309 321 329 336 341 347 351 355 358 0 4 17 8 11 354 34 345 350 311 332 326 357 351 11 330 16 0 35 348 55 47 36 327 298 292 288 287 306 309
258 261 263 262 262 267 267 275 289 308 319 323 325 332 340 346 352 358 2 37 21 319 316 305 310 342 324 348 332 325 13 288 40 58 345 27 173 68 12 276 284 293 285 283 283 323 322
261 267 264 266 265 269 268 277 283 292 300 308 309 313 331 338 340 352 358 10 0 350 275 235 243 228 292 344 319 317 11 1 95 55 61 146 58 75 268 317 312 288 260 322 302 333 274
285 284 270 302 288 297 268 264 276 285 291 297 297 305 318 329 338 343 349 347 354 354 30 224 157 275 348 341 247 295 353 342 156 103 1 277 91 3 333 281 61 287 1 325 315 29 304
269 300 300 290 299 303 275 276 271 275 288 294 291 295 305 303 314 334 333 340 345 16 334 55 91 303 333 295 317 222 339 289 321 140 89 37 346 351 241 258 36 248 321 291 290 91 345
270 275 284 292 295 290 279 269 271 279 287 285 278 279 285 291 303 320 337 336 339 29 255 358 331 286 336 253 182 310 255 338 283 247 171 245 16 254 316 313 275 317 304 306 98 155 257
275 280 281 282 283 283 284 280 278 278 278 274 268 272 279 282 294 320 328 343 24 192 85 314 306 337 192 293 27 353 324 202 351 26 30 225 193 125 270 303 114 20 359 334 347 253 242
282 279 279 278 277 276 274 272 275 280 278 266 275 274 277 278 281 297 317 58 226 276 254 78 278 245 314 1 86 319 270 231 120 66 295 29 321 178 247 59 114 38 65 127 279 309 298
287 287 288 287 287 285 281 277 275 267 259 267 262 254 275 267 264 280 170 192 243 213 312 335 228 295 202 155 336 342 270 334 61 98 161 330 262 123 0 37 110 129 256 29 268 237 308
281 280 281 281 279 278 278 261 257 250 259 270 254 257 251 261 251 227 134 228 219 230 0 235 246 46 312 8 304 56 216 54 124 107 126 100 305 77 156 141 73 145 114 14 265 306 296
287 285 282 276 273 266 266 262 255 244 258 265 238 226 236 228 201 188 231 221 214 204 198 221 305 274 245 267 242 245 253 130 103 136 97 126 121 267 137 196 169 141 232 248 131 204 274
292 289 285 280 266 259 253 247 240 248 238 222 223 209 216 179 142 186 223 183 197 185 195 202 259 283 202 118 275 254 261 202 145 152 179 154 271 265 229 114 39 97 233 163 138 270 237
290 296 293 288 268 251 244 243 220 248 236 226 220 196 195 179 207 195 202 231 211 190 215 170 202 249 51 217 250 210 205 112 175 183 193 174 229 321 332 7 89 215 206 198 49 21 225
280 290 295 292 292 264 248 228 212 222 235 222 185 168 177 202 229 224 171 209 217 221 221 184 194 130 159 230 230 293 246 149 191 189 179 232 255 198 211 211 111 258 207 209 180 200 257
274 269 276 285 283 286 263 228 212 221 220 230 204 226 192 184 230 203 183 168 180 230 233 192 202 213 169 238 194 229 228 140 187 204 209 210 233 261 262 269 267 263 262 230 225 226 211
273 278 270 271 273 278 284 210 208 212 219 226 214 170 188 204 230 188 199 210 226 198 162 223 218 188 203 223 207 192 196 187 191 173 185 191 262 91 282 251 259 272 258 235 230 240 258
273 261 267 268 264 268 273 264 210 208 202 221 231 216 207 184 179 183 198 211 208 165 216 240 201 177 210 237 248 272 236 265 221 170 190 156 207 73 266 340 309 303 244 179 200 188 168
269 268 259 260 263 260 260 265 222 212 216 215 221 223 196 236 190 197 220 200 211 195 170 192 190 181 204 191 148 161 180 270 272 204 188 142 155 123 269 358 310 241 203 175 198 223 216
267 263 260 258 254 254 253 254 255 224 224 228 229 223 212 239 199 213 224 207 228 214 180 191 200 203 160 115 270 308 310 5 354 351 238 152 186 304 211 246 288 293 156 169 175 282 216
269 266 264 262 257 246 250 245 247 248 245 241 231 237 242 238 227 202 202 215 204 172 143 172 175 162 157 141 172 213 233 210 259 356 273 215 324 155 100 190 238 262 170 156 119 294 191
267 264 261 259 258 253 244 246 241 242 241 253 244 231 228 244 249 197 177 186 192 169 104 135 166 174 179 169 186 205 243 181 212 172 172 160 188 219 219 257 280 256 168 154 86 243 187
264 262 258 257 262 253 249 244 241 239 239 237 256 230 226 231 242 218 211 192 186 178 164 142 130 194 174 199 193 221 208 214 148 170 181 175 166 194 184 205 274 159 115 177 218 199 230
261 261 259 257 252 253 247 242 243 235 231 233 240 244 236 243 253 229 235 237 230 238 210 175 219 154 180 170 197 266 270 140 195 247 320 256 197 186 192 209 225 194 222 225 255 248 239
Wind_Speed_850mb
8 11 12 14 17 17 19 21 23 25 28 30 33 34 33 34 35 34 27 21 21 18 19 14 7 8 11 10 9 20 27 24 19 23 24 17 21 8 7 5 6 5 14 16 19 20 25
3 6 10 14 16 18 19 21 24 27 30 31 33 33 32 34 35 36 30 22 21 17 18 12 10 15 13 7 12 21 28 23 16 18 20 19 9 9 8 6 7 12 19 32 14 10 16
4 3 6 9 11 14 16 18 22 24 28 32 34 35 34 38 39 40 36 21 22 18 15 5 4 9 14 6 13 19 29 21 18 16 12 9 15 9 7 2 9 12 10 21 16 9 6
7 5 1 4 7 10 13 16 19 22 26 30 33 35 36 36 42 43 44 24 22 20 15 9 4 8 3 10 9 23 24 12 17 13 6 9 15 11 9 6 6 7 1 11 3 13 10
10 9 5 4 5 6 8 13 16 20 21 25 30 32 34 37 37 44 47 33 25 16 14 9 6 7 4 9 13 21 26 15 10 12 9 8 13 5 2 9 3 9 6 13 13 14 8
16 13 10 7 7 8 10 13 16 18 22 24 26 29 31 35 39 37 43 34 26 8 24 3 10 2 8 10 17 17 27 10 5 9 7 6 3 1 8 9 2 9 9 9 20 14 28
23 21 19 17 16 15 13 14 15 17 20 24 25 28 30 33 38 38 43 28 25 7 23 6 2 1 9 22 7 13 22 12 10 2 6 7 2 4 9 8 7 11 16 20 26 23 16
28 27 26 25 24 23 20 22 21 20 21 23 26 27 34 32 38 35 37 24 20 17 13 9 3 4 10 16 7 9 15 2 8 4 8 4 2 11 4 7 11 14 18 15 21 22 26
36 33 34 32 34 29 27 26 23 22 24 27 28 30 30 32 35 34 38 33 28 18 9 3 6 2 5 10 6 10 14 3 8 5 5 1 7 3 1 6 10 13 10 10 22 30 16
24 23 26 33 30 30 34 25 29 27 30 31 31 30 32 27 17 35 29 36 31 19 8 5 3 1 5 7 4 11 10 3 6 3 7 6 9 2 8 5 8 7 16 23 25 9 7
31 26 33 38 35 26 31 33 33 34 33 32 37 35 30 27 23 23 24 28 31 10 8 3 2 4 8 5 10 3 9 3 6 2 4 2 5 4 3 3 5 16 23 31 14 3 9
24 29 35 35 35 34 33 30 34 41 41 35 32 27 26 29 23 19 20 26 22 8 11 1 3 3 6 5 2 8 3 4 4 2 10 7 1 3 7 13 7 17 13 20 5 5 5
30 32 32 35 39 37 37 38 41 41 37 31 29 33 27 21 18 18 16 15 7 6 4 6 3 1 4 5 2 7 5 2 5 7 3 4 2 4 4 8 8 15 12 8 9 3 9
32 31 32 33 32 32 34 37 35 31 28 25 25 20 18 17 17 14 10 7 7 3 6 1 4 8 5 8 4 7 5 4 6 2 4 4 11 6 2 4 1 6 4 5 8 8 14
37 37 37 35 33 32 30 29 27 20 25 27 21 23 21 18 19 12 6 4 7 5 2 7 3 3 2 3 2 5 4 5 7 4 6 2 8 6 1 4 7 3 1 4 3 5 3
41 41 41 40 35 33 26 24 22 22 21 17 19 25 21 19 15 12 4 8 7 4 2 2 3 3 5 0 4 4 5 2 8 4 4 5 8 1 3 4 9 4 2 5 1 9 11
37 38 37 35 36 30 23 15 21 23 21 19 20 7 10 14 16 10 6 7 4 3 2 3 2 4 8 3 2 3 3 5 7 9 6 5 7 7 5 8 12 3 3 4 2 3 6
30 32 32 30 28 27 26 20 18 22 22 18 14 4 8 17 6 3 4 4 1 5 4 4 2 5 6 3 5 6 5 2 9 15 5 6 0 8 14 11 9 2 6 7 7 10 8
31 33 31 31 31 30 26 20 22 23 23 23 8 7 16 25 5 5 3 3 5 7 7 6 4 5 7 4 7 11 5 6 15 10 4 9 4 7 7 8 3 6 9 8 0 3 13
30 33 33 30 29 26 30 28 28 30 25 30 9 3 5 21 9 2 7 6 4 7 7 9 6 3 5 7 9 7 5 7 14 8 4 2 6 12 11 10 4 9 10 13 14 6 8
39 36 36 34 30 31 28 27 30 32 37 36 23 9 10 7 11 13 8 8 8 7 9 16 6 15 14 8 6 9 10 7 12 13 9 6 9 6 18 21 21 28 31 21 24 32 10
40 40 43 41 37 33 32 29 38 40 48 47 12 10 12 7 5 19 16 11 19 10 16 11 11 15 20 11 12 7 7 9 10 16 12 8 6 2 11 15 12 23 34 29 34 26 28
46 45 45 46 47 43 41 27 46 42 32 39 42 28 12 14 8 10 12 13 19 19 23 6 21 11 16 26 29 22 11 5 3 15 16 10 5 1 11 6 14 15 16 16 11 16 13
53 50 52 50 46 45 43 43 51 53 40 25 22 32 17 7 15 13 9 21 19 27 7 5 16 9 5 4 3 2 5 5 12 17 13 9 6 3 8 10 4 15 9 11 17 13 30
63 61 60 59 62 56 52 49 45 66 65 47 33 32 22 11 17 18 20 13 17 11 17 12 16 13 14 8 1 6 5 7 6 9 3 10 4 2 3 4 18 19 6 11 12 16 19
65 65 67 67 65 63 58 60 54 49 54 63 49 42 42 7 23 29 19 25 9 8 5 9 13 18 16 6 5 6 8 9 4 4 4 3 5 5 4 5 13 7 7 4 4 11 9
76 71 73 70 64 60 68 61 65 55 51 51 56 37 52 36 23 39 10 19 21 16 4 11 13 13 21 7 6 7 8 2 6 14 11 7 5 18 13 9 18 20 16 11 10 12 7
76 80 75 74 71 71 69 68 67 71 60 57 58 62 41 37 51 39 48 33 22 24 10 21 11 9 6 9 7 8 7 9 1 9 13 17 17 11 9 8 21 28 11 14 8 5 9
80 80 83 79 80 68 70 70 58 68 73 65 64 58 50 45 22 46 59 58 45 36 32 42 9 16 24 6 6 4 4 3 7 7 1 5 15 12 23 19 7 43 21 35 12 11 14
Wind_Direction_850mb
40 48 49 54 49 44 38 42 44 42 39 35 33 33 31 25 20 15 15 16 14 14 14 21 65 36 62 59 36 358 3 6 21 34 26 29 44 14 93 339 334 289 5 316 298 284 295
23 44 53 50 42 40 39 41 43 42 38 34 31 30 30 26 22 16 11 9 10 12 15 41 73 52 46 75 6 354 3 6 22 44 18 49 38 62 69 47 311 330 299 284 267 264 286
304 28 55 52 47 42 42 41 43 40 39 36 32 27 24 21 19 14 6 359 3 6 10 18 66 46 36 99 18 -0 360 6 16 32 28 61 71 49 1 8 338 297 298 286 204 186 279
290 287 327 35 40 39 35 33 35 33 31 31 29 25 20 13 13 11 5 1 356 1 5 4 18 90 86 11 337 358 4 5 2 26 29 70 65 60 53 316 221 278 159 355 143 192 166
274 279 263 303 338 2 14 13 13 18 18 20 17 15 14 11 6 8 7 2 355 8 17 21 76 89 55 344 351 347 360 1 1 346 43 66 64 60 247 321 254 60 268 297 316 223 243
255 267 276 273 293 318 340 350 351 354 359 359 3 10 7 5 3 359 3 359 357 358 10 43 60 89 3 321 318 340 350 10 349 352 359 13 21 324 40 14 13 306 309 315 303 305 300
254 258 264 271 278 279 297 298 309 321 329 336 341 347 351 355 358 0 4 17 8 11 354 34 345 350 311 332 326 357 351 11 330 16 0 35 348 55 47 36 327 298 292 288 287 306 309
258 261 263 262 262 267 267 275 289 308 319 323 325 332 340 346 352 358 2 37 21 319 316 305 310 342 324 348 332 325 13 288 40 58 345 27 173 68 12 276 284 293 285 283 283 323 322
261 267 264 266 265 269 268 277 283 292 300 308 309 313 331 338 340 352 358 10 0 350 275 235 243 228 292 344 319 317 11 1 95 55 61 146 58 75 268 317 312 288 260 322 302 333 274
285 284 270 302 288 297 268 264 276 285 291 297 297 305 318 329 338 343 349 347 354 354 30 224 157 275 348 341 247 295 353 342 156 103 1 277 91 3 333 281 61 287 1 325 315 29 304
269 300 300 290 299 303 275 276 271 275 288 294 291 295 305 303 314 334 333 340 345 16 334 55 91 303 333 295 317 222 339 289 321 140 89 37 346 351 241 258 36 248 321 291 290 91 345
270 275 284 292 295 290 279 269 271 279 287 285 278 279 285 291 303 320 337 336 339 29 255 358 331 286 336 253 182 310 255 338 283 247 171 245 16 254 316 313 275 317 304 306 98 155 257
275 280 281 282 283 283 284 280 278 278 278 274 268 272 279 282 294 320 328 343 24 192 85 314 306 337 192 293 27 353 324 202 351 26 30 225 193 125 270 303 114 20 359 334 347 253 242
282 279 279 278 277 276 274 272 275 280 278 266 275 274 277 278 281 297 317 58 226 276 254 78 278 245 314 1 86 319 270 231 120 66 295 29 321 178 247 59 114 38 65 127 279 309 298
287 287 288 287 287 285 281 277 275 267 259 267 262 254 275 267 264 280 170 192 243 213 312 335 228 295 202 155 336 342 270 334 61 98 161 330 262 123 0 37 110 129 256 29 268 237 308
281 280 281 281 279 278 278 261 257 250 259 270 254 257 251 261 251 227 134 228 219 230 0 235 246 46 312 8 304 56 216 54 124 107 126 100 305 77 156 141 73 145 114 14 265 306 296
287 285 282 276 273 266 266 262 255 244 258 265 238 226 236 228 201 188 231 221 214 204 198 221 305 274 245 267 242 245 253 130 103 136 97 126 121 267 137 196 169 141 232 248 131 204 274
292 289 285 280 266 259 253 247 240 248 238 222 223 209 216 179 142 186 223 183 197 185 195 202 259 283 202 118 275 254 261 202 145 152 179 154 271 265 229 114 39 97 233 163 138 270 237
290 296 293 288 268 251 244 243 220 248 236 226 220 196 195 179 207 195 202 231 211 190 215 170 202 249 51 217 250 210 205 112 175 183 193 174 229 321 332 7 89 215 206 198 49 21 225
280 290 295 292 292 264 248 228 212 222 235 222 185 168 177 202 229 224 171 209 217 221 221 184 194 130 159 230 230 293 246 149 191 189 179 232 255 198 211 211 111 258 207 209 180 200 257
274 269 276 285 283 286 263 228 212 221 220 230 204 226 192 184 230 203 183 168 180 230 233 192 202 213 169 238 194 229 228 140 187 204 209 210 233 261 262 269 267 263 262 230 225 226 211
273 278 270 271 273 278 284 210 208 212 219 226 214 170 188 204 230 188 199 210 226 198 162 223 218 188 203 223 207 192 196 187 191 173 185 191 262 91 282 251 259 272 258 235 230 240 258
273 261 267 268 264 268 273 264 210 208 202 221 231 216 207 184 179 183 198 211 208 165 216 240 201 177 210 237 248 272 236 265 221 170 190 156 207 73 266 340 309 303 244 179 200 188 168
269 268 259 260 263 260 260 265 222 212 216 215 221 223 196 236 190 197 220 200 211 195 170 192 190 181 204 191 148 161 180 270 272 204 188 142 155 123 269 358 310 241 203 175 198 223 216
267 263 260 258 254 254 253 254 255 224 224 228 229 223 212 239 199 213 224 207 228 214 180 191 200 203 160 115 270 308 310 5 354 351 238 152 186 304 211 246 288 293 156 169 175 282 216
269 266 264 262 257 246 250 245 247 248 245 241 231 237 242 238 227 202 202 215 204 172 143 172 175 162 157 141 172 213 233 210 259 356 273 215 324 155 100 190 238 262 170 156 119 294 191
267 264 261 259 258 253 244 246 241 242 241 253 244 231 228 244 249 197 177 186 192 169 104 135 166 174 179 169 186 205 243 181 212 172 172 160 188 219 219 257 280 256 168 154 86 243 187
264 262 258 257 262 253 249 244 241 239 239 237 256 230 226 231 242 218 211 192 186 178 164 142 130 194 174 199 193 221 208 214 148 170 181 175 166 194 184 205 274 159 115 177 218 199 230
261 261 259 257 252 253 247 242 243 235 231 233 240 244 236 243 253 229 235 237 230 238 210 175 219 154 180 170 197 266 270 140 195 247 320 256 197 186 192 209 225 194 222 225 255 248 239